Change the Weather History Date:

Friday, June 14, 2013

  Actual Average (KPNC) Record (KPNC)
Temperature  
Mean Temperature 83 °F -  
Max Temperature 98 °F 89 °F 107 °F (1953)
Min Temperature 68 °F 67 °F 55 °F (1975)
Cooling Degree Days 18    
Growing Degree Days 33 (Base 50)    
Moisture  
Dew Point 67 °F    
Average Humidity 62    
Maximum Humidity 94    
Minimum Humidity 32    
Precipitation  
Precipitation 0.00 in - - ()
Sea Level Pressure  
Sea Level Pressure 29.92 in    
Wind  
Wind Speed 9 mph (SSE)    
Max Wind Speed 20 mph    
Max Gust Speed 29 mph    
Visibility 10 miles    
Events      
Averages and records for this station are not official NWS values.
T = Trace of Precipitation, MM = Missing Value Source: NWS Daily Summary

Daily Weather History Graph

Daily Weather History Graph

Search for Another Location

Airport or City:

Trip Planner

Search our weather history database for the weather conditions in past years. The results will help you decide how hot, cold, wet, or windy it might be!

Date:

Astronomy

Jun. 14, 2013 Rise Set
Actual Time 6:09 AM CDT 8:49 PM CDT
Civil Twilight 5:39 AM CDT 9:20 PM CDT
Nautical Twilight 5:01 AM CDT 9:58 PM CDT
Astronomical Twilight 4:18 AM CDT 10:41 PM CDT
Moon 11:38 AM CDT (6/14) 12:03 AM CDT (6/14)
Length of Visible Light 15h 41m
Length of Day
14h 39m
Waxing Crescent, 30% of the Moon is Illuminated
Jun 14
Waxing Crescent
Jun 16
First Quarter
Jun 23
Full
Jun 29
Last Quarter
Jul 8
New

Hourly Weather History & Observations

Time (CDT) Temp. Heat Index Dew Point Humidity Pressure Visibility Wind Dir Wind Speed Gust Speed Precip Events Conditions
12:15 AM 75.2 °F - 68.0 °F 78% 29.96 in 10.0 mi SE 8.1 mph - N/A   Mostly Cloudy
12:35 AM 75.2 °F - 68.0 °F 78% 29.96 in 10.0 mi SE 6.9 mph - N/A   Overcast
12:55 AM 75.2 °F - 68.0 °F 78% 29.97 in 10.0 mi ESE 6.9 mph - N/A   Mostly Cloudy
1:15 AM 73.4 °F - 68.0 °F 83% 29.97 in 10.0 mi ESE 6.9 mph - N/A   Mostly Cloudy
1:35 AM 73.4 °F - 68.0 °F 83% 29.96 in 10.0 mi ESE 6.9 mph - N/A   Mostly Cloudy
1:55 AM 73.4 °F - 68.0 °F 83% 29.96 in 10.0 mi ESE 6.9 mph - N/A   Mostly Cloudy
2:15 AM 73.4 °F - 68.0 °F 83% 29.95 in 10.0 mi SE 5.8 mph - N/A   Scattered Clouds
2:35 AM 71.6 °F - 68.0 °F 88% 29.95 in 10.0 mi SE 5.8 mph - N/A   Scattered Clouds
2:55 AM 71.6 °F - 66.2 °F 83% 29.95 in 10.0 mi East 5.8 mph - N/A   Mostly Cloudy
3:15 AM 71.6 °F - 66.2 °F 83% 29.94 in 10.0 mi East 5.8 mph - N/A   Mostly Cloudy
3:35 AM 69.8 °F - 66.2 °F 88% 29.94 in 10.0 mi ESE 5.8 mph - N/A   Mostly Cloudy
3:55 AM 69.8 °F - 66.2 °F 88% 29.93 in 10.0 mi ESE 4.6 mph - N/A   Mostly Cloudy
4:15 AM 68.0 °F - 66.2 °F 94% 29.93 in 10.0 mi ENE 3.5 mph - N/A   Partly Cloudy
4:35 AM 68.0 °F - 66.2 °F 94% 29.93 in 10.0 mi ESE 4.6 mph - N/A   Partly Cloudy
4:55 AM 68.0 °F - 66.2 °F 94% 29.93 in 10.0 mi SE 3.5 mph - N/A   Partly Cloudy
5:15 AM 68.0 °F - 66.2 °F 94% 29.93 in 10.0 mi ESE 4.6 mph - N/A   Partly Cloudy
5:35 AM 68.0 °F - 66.2 °F 94% 29.93 in 10.0 mi ESE 4.6 mph - N/A   Clear
5:55 AM 68.0 °F - 66.2 °F 94% 29.93 in 10.0 mi East 4.6 mph - N/A   Clear
6:15 AM 68.0 °F - 66.2 °F 94% 29.93 in 10.0 mi East 3.5 mph - N/A   Clear
6:35 AM 68.0 °F - 66.2 °F 94% 29.94 in 10.0 mi East 4.6 mph - N/A   Clear
6:55 AM 68.0 °F - 66.2 °F 94% 29.94 in 10.0 mi ESE 3.5 mph - N/A   Clear
7:15 AM 71.6 °F - 68.0 °F 88% 29.95 in 10.0 mi East 4.6 mph - N/A   Clear
7:35 AM 71.6 °F - 68.0 °F 88% 29.95 in 10.0 mi ESE 5.8 mph - N/A   Clear
7:55 AM 75.2 °F - 68.0 °F 78% 29.95 in 10.0 mi ESE 6.9 mph - N/A   Clear
8:15 AM 77.0 °F - 69.8 °F 78% 29.96 in 10.0 mi SE 9.2 mph - N/A   Clear
8:35 AM 80.6 °F 84.6 °F 71.6 °F 74% 29.96 in 10.0 mi SSE 9.2 mph - N/A   Clear
8:55 AM 82.4 °F 87.2 °F 71.6 °F 70% 29.96 in 10.0 mi SSE 11.5 mph 16.1 mph N/A   Clear
9:15 AM 84.2 °F 89.6 °F 71.6 °F 66% 29.96 in 10.0 mi SE 9.2 mph - N/A   Clear
9:35 AM 84.2 °F 89.6 °F 71.6 °F 66% 29.96 in 10.0 mi SSE 10.4 mph - N/A   Clear
9:55 AM 87.8 °F 92.6 °F 69.8 °F 55% 29.96 in 10.0 mi SSE 9.2 mph - N/A   Clear
10:15 AM 87.8 °F 93.8 °F 71.6 °F 58% 29.96 in 10.0 mi SSE 9.2 mph - N/A   Clear
10:35 AM 89.6 °F 96.2 °F 71.6 °F 55% 29.96 in 10.0 mi South 9.2 mph - N/A   Clear
10:55 AM 91.4 °F 95.4 °F 68.0 °F 46% 29.95 in 10.0 mi South 10.4 mph - N/A   Clear
11:15 AM 93.2 °F 97.7 °F 68.0 °F 44% 29.95 in 10.0 mi SSW 12.7 mph - N/A   Clear
11:35 AM 93.2 °F 96.2 °F 66.2 °F 41% 29.95 in 10.0 mi South 9.2 mph 19.6 mph N/A   Clear
11:55 AM 95.0 °F 98.5 °F 66.2 °F 39% 29.94 in 10.0 mi South 12.7 mph 16.1 mph N/A   Clear
12:15 PM 95.0 °F 98.5 °F 66.2 °F 39% 29.93 in 10.0 mi SW 13.8 mph 20.7 mph N/A   Clear
12:35 PM 96.8 °F 100.7 °F 66.2 °F 37% 29.93 in 10.0 mi SSW 10.4 mph - N/A   Clear
12:55 PM 96.8 °F 99.0 °F 64.4 °F 34% 29.92 in 10.0 mi SSW 12.7 mph 23.0 mph N/A   Clear
1:15 PM 98.6 °F 101.0 °F 64.4 °F 32% 29.92 in 10.0 mi South 17.3 mph 21.9 mph N/A   Clear
1:35 PM 98.6 °F 101.0 °F 64.4 °F 32% 29.92 in 10.0 mi South 16.1 mph 21.9 mph N/A   Clear
1:55 PM 98.6 °F 102.8 °F 66.2 °F 35% 29.91 in 10.0 mi South 13.8 mph 23.0 mph N/A   Clear
2:15 PM 98.6 °F 102.8 °F 66.2 °F 35% 29.91 in 10.0 mi SSE 16.1 mph 21.9 mph N/A   Clear
2:35 PM 98.6 °F 101.0 °F 64.4 °F 32% 29.90 in 10.0 mi South 16.1 mph 26.5 mph N/A   Clear
2:55 PM 98.6 °F 102.8 °F 66.2 °F 35% 29.90 in 10.0 mi South 19.6 mph 27.6 mph N/A   Clear
3:15 PM 98.6 °F 101.0 °F 64.4 °F 32% 29.90 in 10.0 mi South 15.0 mph 25.3 mph N/A   Clear
3:35 PM 98.6 °F 101.0 °F 64.4 °F 32% 29.89 in 10.0 mi South 15.0 mph 24.2 mph N/A   Clear
3:55 PM 98.6 °F 102.8 °F 66.2 °F 35% 29.88 in 10.0 mi SSE 15.0 mph 28.8 mph N/A   Clear
4:15 PM 96.8 °F 100.7 °F 66.2 °F 37% 29.88 in 10.0 mi South 16.1 mph 25.3 mph N/A   Partly Cloudy
4:35 PM 98.6 °F 101.0 °F 64.4 °F 32% 29.88 in 10.0 mi South 18.4 mph 26.5 mph N/A   Clear
4:55 PM 96.8 °F 99.0 °F 64.4 °F 34% 29.88 in 10.0 mi South 17.3 mph 26.5 mph N/A   Clear
5:15 PM 95.0 °F 98.5 °F 66.2 °F 39% 29.88 in 10.0 mi South 17.3 mph 25.3 mph N/A   Clear
5:35 PM 95.0 °F 97.0 °F 64.4 °F 36% 29.88 in 10.0 mi South 18.4 mph 25.3 mph N/A   Clear
5:55 PM 93.2 °F 96.2 °F 66.2 °F 41% 29.87 in 10.0 mi South 18.4 mph 24.2 mph N/A   Clear
6:15 PM 93.2 °F 96.2 °F 66.2 °F 41% 29.87 in 10.0 mi South 17.3 mph 23.0 mph N/A   Clear
6:35 PM 91.4 °F 94.0 °F 66.2 °F 43% 29.87 in 10.0 mi South 15.0 mph 24.2 mph N/A   Clear
6:55 PM 91.4 °F 95.4 °F 68.0 °F 46% 29.87 in 10.0 mi South 15.0 mph 21.9 mph N/A   Clear
7:15 PM 89.6 °F 93.4 °F 68.0 °F 49% 29.86 in 10.0 mi South 13.8 mph 21.9 mph N/A   Clear
7:35 PM 89.6 °F 93.4 °F 68.0 °F 49% 29.87 in 10.0 mi South 13.8 mph 17.3 mph N/A   Clear
7:55 PM 89.6 °F 93.4 °F 68.0 °F 49% 29.87 in 10.0 mi South 11.5 mph 18.4 mph N/A   Clear
8:15 PM 87.8 °F 91.4 °F 68.0 °F 52% 29.88 in 10.0 mi South 11.5 mph - N/A   Clear
8:35 PM 86.0 °F 89.4 °F 68.0 °F 55% 29.88 in 10.0 mi South 11.5 mph - N/A   Clear
8:55 PM 84.2 °F 87.3 °F 68.0 °F 58% 29.89 in 10.0 mi South 10.4 mph - N/A   Clear
9:15 PM 84.2 °F 87.3 °F 68.0 °F 58% 29.90 in 10.0 mi South 9.2 mph - N/A   Clear
9:35 PM 82.4 °F 85.4 °F 68.0 °F 62% 29.90 in 10.0 mi South 8.1 mph - N/A   Clear
9:55 PM 80.6 °F 83.2 °F 68.0 °F 65% 29.91 in 10.0 mi South 6.9 mph - N/A   Clear
10:15 PM 80.6 °F 83.2 °F 68.0 °F 65% 29.92 in 10.0 mi South 5.8 mph - N/A   Clear
10:35 PM 80.6 °F 83.2 °F 68.0 °F 65% 29.92 in 10.0 mi SSE 5.8 mph - N/A   Clear
10:55 PM 77.0 °F - 68.0 °F 74% 29.93 in 10.0 mi SE 4.6 mph - N/A   Clear
11:15 PM 77.0 °F - 68.0 °F 74% 29.93 in 10.0 mi SSE 5.8 mph - N/A   Clear
11:35 PM 77.0 °F - 68.0 °F 74% 29.93 in 10.0 mi SSE 6.9 mph - N/A   Clear
11:55 PM 77.0 °F - 68.0 °F 74% 29.93 in 10.0 mi South 4.6 mph - N/A   Clear